Location: South Cushing
(43.9686°N, 69.2945°W)
Time: 05:59:32
(UTC-05:00)

N. Korean satellite - Visible Passes

Search period start: 23 November 2017 00:00
Search period end: 03 December 2017 00:00
Orbit: 460 x 514 km, 97.2° (Epoch: 22 November)

Date Brightness Start Highest point End Pass type
(mag) Time Alt. Az. Time Alt. Az. Time Alt. Az.
23 Nov 7.6 16:51:14 10° SE 16:54:10 25° ENE 16:57:09 10° NNE visible
23 Nov 9.2 18:24:56 10° SW 18:27:39 21° W 18:30:26 10° NW visible
24 Nov 9.1 05:49:58 10° NE 05:53:16 28° E 05:56:31 10° SSE visible
24 Nov 7.9 18:00:42 10° S 18:04:02 40° W 18:07:28 10° NNW visible
25 Nov 9.9 05:27:18 10° NE 05:29:37 15° E 05:31:54 10° SE visible
25 Nov 6.5 17:36:57 10° S 17:40:29 84° WSW 17:44:07 10° NNW visible
26 Nov 6.7 17:13:37 10° SSE 17:17:02 47° ENE 17:20:32 10° N visible
26 Nov 10.1 18:49:40 10° WSW 18:50:52 11° W 18:52:04 10° WNW visible
27 Nov 7.6 06:12:38 10° NNE 06:16:21 54° E 06:20:02 10° S visible
27 Nov 7.6 16:50:41 10° SE 16:53:39 25° ENE 16:56:41 10° NNE visible
27 Nov 9.2 18:24:21 10° SW 18:27:08 21° W 18:29:59 10° NW visible
28 Nov 9.1 05:49:28 10° NE 05:52:45 28° E 05:56:02 10° SSE visible
28 Nov 8.3 16:28:22 10° E 16:30:21 14° ENE 16:32:21 10° NNE visible
28 Nov 7.9 18:00:07 10° S 18:03:30 41° W 18:06:58 10° NNW visible
29 Nov 9.9 05:26:48 10° NE 05:29:05 15° E 05:31:22 10° SE visible
29 Nov 6.5 17:36:22 10° SSE 17:39:56 85° WSW 17:43:37 10° NNW visible
30 Nov 6.8 17:13:00 10° SSE 17:16:28 47° ENE 17:20:00 10° N visible
30 Nov 10.0 18:48:58 10° WSW 18:50:17 12° W 18:51:37 10° WNW visible
01 Dec 7.6 06:12:05 10° NNE 06:15:48 53° E 06:19:28 10° S visible
01 Dec 7.6 16:50:04 10° SE 16:53:04 25° ENE 16:56:07 10° NNE visible
01 Dec 9.2 18:23:42 10° SW 18:26:33 22° W 18:29:26 10° NW visible
02 Dec 9.1 05:48:54 10° NE 05:52:11 28° E 05:55:26 10° SSE visible
02 Dec 7.9 17:59:28 10° S 18:02:53 41° W 18:06:24 10° NNW visible
